Weather History for Warsaw, IN

Change the Weather History Date:

Wednesday, November 20, 2013

  Actual Average Record
Temperature  
Mean Temperature 35 °F -  
Max Temperature 42 °F 47 °F 71 °F (1953)
Min Temperature 28 °F 29 °F 15 °F (1964)
Degree Days  
Heating Degree Days 30    
Moisture  
Dew Point 28 °F    
Average Humidity 74    
Maximum Humidity 86    
Minimum Humidity 57    
Precipitation  
Precipitation 0.00 in - - ()
Sea Level Pressure  
Sea Level Pressure 30.27 in    
Wind  
Wind Speed 6 mph (SE)    
Max Wind Speed 13 mph    
Max Gust Speed 18 mph    
Visibility 10 miles    
Events Rain    
Averages and records for this station are not official NWS values.
T = Trace of Precipitation, MM = Missing Value Source: NWS Daily Summary

Daily Weather History Graph

Daily Weather History Graph

Search for Another Location

Airport:

Trip Planner

Search our weather history database for the weather conditions in past years. The results will help you decide how hot, cold, wet, or windy it might be!

Date:

Astronomy

Nov. 20, 2013 Rise Set
Actual Time 7:37 AM EST 5:20 PM EST
Civil Twilight 7:07 AM EST 5:50 PM EST
Nautical Twilight 6:33 AM EST 6:23 PM EST
Astronomical Twilight 6:01 AM EST 6:56 PM EST
Moon 8:02 PM EST (11/20) 10:02 AM EST (11/20)
Length of Visible Light 10h 42m
Length of Day
9h 42m
Waning Gibbous, 91% of the Moon is Illuminated
Nov 20
Waning Gibbous
Nov 25
Last Quarter
Dec 2
New
Dec 9
First Quarter
Dec 17
Full

Hourly Weather History & Observations

Time (EST) Temp. Windchill Dew Point Humidity Pressure Visibility Wind Dir Wind Speed Gust Speed Precip Events Conditions
12:15 AM 30.2 °F 26.7 °F 24.8 °F 80% 30.35 in 10.0 mi SE 3.5 mph - N/A   Clear
12:35 AM 30.2 °F 26.7 °F 24.8 °F 80% 30.35 in 10.0 mi ESE 3.5 mph - N/A   Clear
12:55 AM 30.2 °F 26.7 °F 24.8 °F 80% 30.35 in 10.0 mi ESE 3.5 mph - N/A   Clear
1:15 AM 30.2 °F 24.3 °F 24.8 °F 80% 30.35 in 10.0 mi ESE 5.8 mph - N/A   Clear
1:35 AM 30.2 °F 25.4 °F 23.0 °F 75% 30.35 in 10.0 mi ESE 4.6 mph - N/A   Clear
1:55 AM 28.4 °F 23.3 °F 23.0 °F 80% 30.35 in 10.0 mi ESE 4.6 mph - N/A   Clear
2:15 AM 30.2 °F 26.7 °F 24.8 °F 80% 30.35 in 10.0 mi ESE 3.5 mph - N/A   Clear
2:35 AM 28.4 °F 23.3 °F 23.0 °F 80% 30.35 in 10.0 mi ESE 4.6 mph - N/A   Clear
2:55 AM 28.4 °F 23.3 °F 23.0 °F 80% 30.35 in 10.0 mi East 4.6 mph - N/A   Clear
3:15 AM 28.4 °F 21.2 °F 23.0 °F 80% 30.36 in 10.0 mi ESE 6.9 mph - N/A   Clear
3:35 AM 28.4 °F 22.2 °F 23.0 °F 80% 30.36 in 10.0 mi ESE 5.8 mph - N/A   Clear
3:55 AM 28.4 °F 23.3 °F 24.8 °F 86% 30.35 in 10.0 mi ESE 4.6 mph - N/A   Clear
4:15 AM 28.4 °F 22.2 °F 23.0 °F 80% 30.35 in 10.0 mi ESE 5.8 mph - N/A   Clear
4:35 AM 28.4 °F 22.2 °F 23.0 °F 80% 30.35 in 10.0 mi ESE 5.8 mph - N/A   Clear
4:55 AM 28.4 °F 21.2 °F 23.0 °F 80% 30.35 in 10.0 mi ESE 6.9 mph - N/A   Clear
5:15 AM 28.4 °F 22.2 °F 23.0 °F 80% 30.35 in 10.0 mi ESE 5.8 mph - N/A   Clear
5:35 AM 28.4 °F 20.4 °F 24.8 °F 86% 30.35 in 10.0 mi ESE 8.1 mph - N/A   Clear
5:55 AM 28.4 °F 21.2 °F 24.8 °F 86% 30.36 in 10.0 mi ESE 6.9 mph - N/A   Clear
6:15 AM 28.4 °F 19.7 °F 24.8 °F 86% 30.36 in 10.0 mi ESE 9.2 mph - N/A   Clear
6:35 AM 28.4 °F 21.2 °F 24.8 °F 86% 30.35 in 10.0 mi ESE 6.9 mph - N/A   Clear
6:55 AM 28.4 °F 22.2 °F 24.8 °F 86% 30.35 in 10.0 mi ESE 5.8 mph - N/A   Clear
7:15 AM 28.4 °F 21.2 °F 24.8 °F 86% 30.35 in 10.0 mi ESE 6.9 mph - N/A   Clear
7:35 AM 28.4 °F 19.7 °F 24.8 °F 86% 30.35 in 10.0 mi ESE 9.2 mph - N/A   Clear
7:55 AM 28.4 °F 20.4 °F 24.8 °F 86% 30.35 in 10.0 mi ESE 8.1 mph - N/A   Clear
8:15 AM 30.2 °F 23.4 °F 24.8 °F 80% 30.35 in 10.0 mi ESE 6.9 mph - N/A   Clear
8:35 AM 30.2 °F 21.9 °F 26.6 °F 86% 30.34 in 10.0 mi ESE 9.2 mph - N/A   Clear
8:55 AM 30.2 °F 22.6 °F 26.6 °F 86% 30.34 in 10.0 mi ESE 8.1 mph - N/A   Clear
9:15 AM 32.0 °F 23.0 °F 26.6 °F 80% 30.33 in 10.0 mi SE 11.5 mph - N/A   Clear
9:35 AM 32.0 °F 24.2 °F 26.6 °F 80% 30.33 in 10.0 mi ESE 9.2 mph - N/A   Clear
9:55 AM 32.0 °F 23.6 °F 26.6 °F 80% 30.33 in 10.0 mi ESE 10.4 mph 17.3 mph N/A   Clear
10:15 AM 32.0 °F 24.2 °F 26.6 °F 80% 30.32 in 10.0 mi SE 9.2 mph - N/A   Clear
10:35 AM 33.8 °F 27.0 °F 28.4 °F 81% 30.32 in 10.0 mi SE 8.1 mph - N/A   Clear
10:55 AM 35.6 °F 27.5 °F 26.6 °F 70% 30.32 in 10.0 mi ESE 11.5 mph - N/A   Clear
11:15 AM 35.6 °F 27.5 °F 28.4 °F 75% 30.32 in 10.0 mi SE 11.5 mph - N/A   Clear
11:35 AM 37.4 °F 30.8 °F 28.4 °F 70% 30.30 in 10.0 mi SE 9.2 mph - N/A   Clear
11:55 AM 37.4 °F 29.3 °F 26.6 °F 65% 30.30 in 10.0 mi SE 12.7 mph 18.4 mph N/A   Clear
12:15 PM 37.4 °F 29.3 °F 26.6 °F 65% 30.29 in 10.0 mi SE 12.7 mph 16.1 mph N/A   Clear
12:35 PM 39.2 °F 32.0 °F 28.4 °F 65% 30.27 in 10.0 mi ESE 11.5 mph 17.3 mph N/A   Clear
12:55 PM 41.0 °F 35.2 °F 28.4 °F 61% 30.27 in 10.0 mi SSE 9.2 mph - N/A   Clear
1:15 PM 41.0 °F 34.7 °F 28.4 °F 61% 30.26 in 10.0 mi SE 10.4 mph 16.1 mph N/A   Clear
1:35 PM 41.0 °F 35.2 °F 28.4 °F 61% 30.25 in 10.0 mi SE 9.2 mph - N/A   Clear
1:55 PM 42.8 °F 37.5 °F 28.4 °F 57% 30.23 in 10.0 mi SSE 9.2 mph - N/A   Clear
2:15 PM 41.0 °F 35.2 °F 28.4 °F 61% 30.23 in 10.0 mi SE 9.2 mph - N/A   Clear
2:35 PM 41.0 °F 35.8 °F 28.4 °F 61% 30.22 in 10.0 mi SE 8.1 mph 16.1 mph N/A   Clear
2:55 PM 41.0 °F 34.7 °F 28.4 °F 61% 30.21 in 10.0 mi SE 10.4 mph 17.3 mph N/A   Clear
3:15 PM 41.0 °F 34.7 °F 30.2 °F 65% 30.20 in 10.0 mi SE 10.4 mph 17.3 mph N/A   Clear
3:35 PM 42.8 °F 37.0 °F 30.2 °F 61% 30.20 in 10.0 mi SE 10.4 mph - N/A   Clear
3:55 PM 42.8 °F 39.3 °F 30.2 °F 61% 30.20 in 10.0 mi SE 5.8 mph - N/A   Clear
4:15 PM 41.0 °F 36.4 °F 30.2 °F 65% 30.19 in 10.0 mi SE 6.9 mph - N/A   Clear
4:35 PM 41.0 °F 36.4 °F 30.2 °F 65% 30.19 in 10.0 mi SE 6.9 mph - N/A   Clear
4:55 PM 41.0 °F 37.1 °F 30.2 °F 65% 30.19 in 10.0 mi SE 5.8 mph - N/A   Clear
5:15 PM 39.2 °F 35.9 °F 30.2 °F 70% 30.20 in 10.0 mi SE 4.6 mph - N/A   Clear
5:35 PM 39.2 °F 35.9 °F 30.2 °F 70% 30.20 in 10.0 mi SE 4.6 mph - N/A   Clear
5:55 PM 39.2 °F 35.9 °F 30.2 °F 70% 30.20 in 10.0 mi SE 4.6 mph - N/A   Clear
6:15 PM 39.2 °F 37.0 °F 32.0 °F 75% 30.21 in 10.0 mi SE 3.5 mph - N/A   Clear
6:35 PM 39.2 °F 35.0 °F 32.0 °F 75% 30.20 in 10.0 mi ESE 5.8 mph - N/A   Clear
6:55 PM 39.2 °F 35.9 °F 32.0 °F 75% 30.20 in 10.0 mi SE 4.6 mph - N/A   Clear
7:15 PM 39.2 °F 35.0 °F 32.0 °F 75% 30.20 in 10.0 mi SE 5.8 mph - N/A   Scattered Clouds
7:35 PM 39.2 °F 35.0 °F 32.0 °F 75% 30.19 in 10.0 mi SE 5.8 mph - N/A   Scattered Clouds
7:55 PM 41.0 °F 38.0 °F 32.0 °F 70% 30.18 in 10.0 mi ESE 4.6 mph - N/A   Overcast
8:15 PM 41.0 °F 38.0 °F 32.0 °F 70% 30.18 in 10.0 mi SE 4.6 mph - N/A   Overcast
8:35 PM 41.0 °F 38.0 °F 32.0 °F 70% 30.19 in 10.0 mi SSE 4.6 mph - N/A   Overcast
8:55 PM 41.0 °F 35.8 °F 32.0 °F 70% 30.18 in 10.0 mi SSE 8.1 mph - N/A   Overcast
9:15 PM 41.0 °F 37.1 °F 32.0 °F 70% 30.18 in 10.0 mi SE 5.8 mph - N/A   Overcast
9:35 PM 41.0 °F 37.1 °F 32.0 °F 70% 30.18 in 10.0 mi SE 5.8 mph - N/A   Overcast
9:55 PM 41.0 °F 38.0 °F 32.0 °F 70% 30.17 in 10.0 mi SSE 4.6 mph - N/A   Overcast
10:15 PM 42.8 °F 41.1 °F 32.0 °F 66% 30.18 in 10.0 mi SSE 3.5 mph - N/A Rain Light Rain
10:35 PM 42.8 °F 39.3 °F 32.0 °F 66% 30.19 in 10.0 mi SSE 5.8 mph - N/A   Overcast
10:55 PM 42.8 °F 40.1 °F 32.0 °F 66% 30.20 in 10.0 mi South 4.6 mph - N/A   Overcast
11:15 PM 42.8 °F - 32.0 °F 66% 30.20 in 10.0 mi Calm Calm - N/A   Overcast
11:35 PM 42.8 °F 41.1 °F 32.0 °F 66% 30.20 in 10.0 mi SSE 3.5 mph - N/A Rain Light Rain
11:55 PM 42.8 °F - 32.0 °F 66% 30.20 in 10.0 mi Calm Calm - N/A   Overcast